カタログに戻る

GEESAT 6-11

運用中通信LEO
NORAD 65723·PAYLOAD·🇨🇳 China

打ち上げ Sep 24, 2025 から Yellow Sea Launch Area

Loading…

次のパス (今後24時間)

TLE

最新Source: Space-Track

元期: Sep 14, 2026, 06:07 UTC

1 65723U 25214M   26257.25499008  .00001185  00000-0  16946-3 0  9990
2 65723  49.9827 255.1426 0009898 208.6779 151.3616 14.83584629 52732

AllMySatでGEESAT 6-11をリアルタイム追跡

Download on the App Store